STARLINK-38436, 100641

Orbit data source: Space-Track

STARLINK-38436, 100641 is a payload satellite owned by SpaceX/Seattle (US) in LEO that was launched on Sun, 06 Sep 2026 UTC launched from the Air Force Western Test Range (AFWTR). Payload-class satellites include a variety of spacecraft equipped with specific instruments for various scientific and technological missions. These include communications satellites like Starlink; space stations such as the ISS; scientific satellites like the Hubble; Earth observation satellites from companies like Planet Labs, Umbra, and HawkEye 360; GPS; miniature CubeSats for education and research; and military/defense satellites.

Loading next visibility...
Identifier
100641, 2026-204AC
Orbit
LEO
Country
Flag of USUS
Related business
Manufacturer
SpaceX/Seattle
Mission
Operational spacecraft
Bus & Motor
STARLINK V2MO, Unknown motor
Mass
575 kg wet, ~530 kg dry
Launch date (UTC)
2026-09-06 (5 days ago)
Launch vehicle
Unknown
Launch site
Air Force Western Test Range (AFWTR)
Object type
Payload
Rocket body
Debris
Shape & HBR
BOX + PAN, 17.7 m
Radar Cross Section
RCS unknown

Expand to show TLE details & history
Last TLE update: 21 hours ago

TLE from 21 hours ago
0 STARLINK-38436
1 A0641U          26253.57226528 -.01141812  40650-3 -26396-2 0  9992
2 A0641  69.9976 266.2638 0004316 265.3847  94.6869 15.97001974   646
Epoch: 2026-09-10T13:44Z
TLE epoch observation values (Epoch: 2026-09-10T13:44:03.720Z)
Latitude
-0.00006°
Longitude
70.64023°
Altitude
285.507 km
Speed
7.736 km/s
True Right ascension
17h 45m 03s
True Declination
0° 00' 00"
Sunlit
Object was in daylight at epoch
Visualization orbit readout
Latitude
Unknown
Longitude
Unknown
Altitude
Unknown
Speed
Unknown
Apparent Right ascension
Unknown
Apparent Declination
Unknown
Sunlit
N/A
Visualization observer readout
Local Sidereal Time
03:08:39
Azimuth
Unknown
Elevation
Unknown
Doppler factor
Unknown
Orbital elements
Apogee altitude
283.475 km
Perigee altitude
277.727 km
Semi-major axis
6,658.738 km
Eccentricity
0.00043
Inclination
69.9976°
RAAN
266.2638°
Arg. of periapsis
265.3847°
True anomaly
94.73619°
Mean anomaly
94.6869°
Eccentric anomaly
94.71155°
Mean motion
3.99443 °/min
Orbital period
90.13 mins
BSTAR
-0.0026396
Loading maneuver chart data...
Computing Atmospheric mass density...
Loading historical data...
Loading historical data...
Loading historical data...
Loading historical data...
Loading historical data...
Loading historical data...
Loading historical data...

Documentation

Showing up to 5 results
|